Presure
112 183 99 88 88 88 136 84 100 86 84 90 96 124 104 91 89 99 94 155 96 153 151 152 153 152 160 157 152 156 151 116 159 167 108 166 113 155 130 165 163 152 150 151 169 172 173 166 169
126 163 114 141 173 89 92 130 87 91 92 92 107 113 86 110 142 156 99 148 153 152 154 160 154 149 152 157 131 151 98 97 118 134 142 170 155 171 154 139 203 162 164 168 166 181 172 178 150
92 109 106 111 117 94 113 141 88 96 89 86 88 80 145 98 129 146 96 101 150 151 157 152 152 147 161 145 156 149 156 155 154 161 169 164 170 158 144 231 224 139 213 209 207 191 172 188 198
82 111 105 102 110 107 178 116 124 81 75 81 146 89 149 104 144 122 146 97 104 152 160 151 164 164 151 144 150 153 157 156 160 166 161 163 133 116 227 229 96 222 213 209 199 150 189 173 188
106 91 113 108 114 94 121 135 120 89 84 101 113 118 122 154 153 152 148 145 106 153 163 157 172 165 155 151 150 153 138 160 163 163 158 155 217 246 231 137 131 225 206 106 134 197 132 137 189
127 92 103 108 110 88 102 170 163 88 90 128 184 101 97 148 155 143 132 156 164 157 156 159 173 158 145 97 159 147 152 163 163 162 165 125 228 230 227 221 208 159 133 129 187 190 147 106 137
89 90 105 106 110 103 148 94 87 122 122 112 154 98 89 175 96 94 187 186 155 178 161 153 168 117 120 132 149 112 96 151 135 172 172 205 246 126 233 215 123 178 137 140 186 131 147 188 187
103 116 94 96 104 188 139 88 95 103 170 86 133 93 82 108 139 92 100 99 157 152 155 147 159 133 105 89 92 155 186 156 173 171 179 259 239 231 125 216 125 121 203 203 134 186 196 166 185
104 123 130 104 97 110 193 141 110 174 112 183 92 84 87 95 90 107 131 136 147 120 185 162 139 86 87 90 167 164 178 167 177 172 192 235 242 226 219 129 151 128 126 151 139 189 201 209 218
208 206 134 95 85 179 139 192 158 99 81 84 90 74 86 89 84 120 151 177 162 171 125 203 194 94 89 235 125 144 162 174 177 167 243 249 238 230 135 182 133 144 171 206 203 139 113 89 197
109 208 149 112 190 134 106 174 186 91 86 86 71 89 84 75 90 174 188 173 166 186 235 125 254 200 130 96 147 176 170 176 179 112 242 242 226 225 216 219 197 194 195 195 102 106 101 195 207
113 124 163 188 216 114 109 179 187 96 95 88 85 91 90 91 92 192 196 189 207 238 240 241 250 259 245 106 228 178 176 176 147 106 106 161 245 227 225 177 213 200 182 94 212 196 207 205 186
110 111 115 130 210 200 91 174 113 118 107 88 91 130 96 88 95 155 180 173 231 229 197 134 132 234 151 191 172 197 176 166 158 111 230 239 247 178 219 218 141 101 125 185 215 213 198 168 191
148 109 215 93 80 141 80 84 109 184 179 135 181 99 102 93 87 102 229 100 118 186 238 177 144 153 162 170 144 172 181 174 156 210 231 236 249 235 236 155 132 170 216 215 174 183 176 158 161
171 180 89 101 87 208 92 100 94 171 173 93 92 91 95 91 94 172 168 120 224 114 237 235 235 227 214 191 153 169 184 167 156 157 162 168 160 151 234 91 114 104 211 169 165 126 135 160 167
173 186 180 217 88 85 105 90 94 93 155 202 89 87 84 95 92 201 148 106 117 112 187 147 172 199 207 149 180 168 184 162 167 171 166 164 171 155 168 101 91 163 179 103 143 153 154 157 160
188 177 169 204 209 127 174 91 88 109 117 148 95 91 100 87 104 181 109 217 186 99 115 105 83 154 192 197 177 167 164 160 161 173 168 164 162 104 99 103 104 123 125 173 164 165 165 169 169
183 176 203 196 206 209 198 195 87 90 90 179 90 149 193 199 89 126 87 214 199 209 202 84 90 90 194 191 166 168 161 176 143 151 142 136 124 102 101 100 94 157 158 167 166 165 163 163 165
180 184 180 206 209 205 201 196 188 195 76 73 98 129 189 191 92 192 142 141 127 162 216 126 172 178 179 189 163 173 169 168 143 156 145 159 131 102 96 104 163 155 160 179 175 156 142 177 155
179 174 189 193 193 196 201 195 193 132 190 197 190 185 159 197 186 198 160 231 220 209 213 199 168 179 193 191 176 181 171 132 172 159 131 102 120 82 171 176 178 177 176 173 168 163 156 121 131
177 170 198 194 202 197 197 192 187 189 189 193 90 84 118 182 191 162 198 235 219 214 173 164 178 166 168 186 166 179 174 143 115 121 138 167 170 168 169 149 172 153 153 161 154 144 127 166 153
182 167 141 111 194 190 194 190 144 135 169 179 183 191 179 176 179 195 203 201 134 206 205 212 193 151 183 142 131 108 124 132 139 156 160 163 166 171 130 153 168 175 170 134 154 164 133 176 181
183 178 178 189 189 196 105 100 104 184 178 181 191 170 190 175 169 178 177 193 205 210 197 202 109 191 180 185 140 149 149 174 146 159 99 152 126 164 164 164 170 167 120 128 130 190 185 188 174
188 168 172 190 117 194 189 191 177 177 177 174 181 177 134 188 184 187 187 187 185 193 118 210 207 201 193 185 170 125 143 167 127 139 167 170 154 172 158 168 142 122 180 180 155 178 190 192 191
187 119 160 183 186 188 191 187 173 178 172 172 177 177 168 94 141 171 186 185 187 191 194 156 197 204 196 194 196 174 178 179 141 144 152 149 150 161 163 165 126 155 198 201 206 201 199 179 205
180 88 188 160 186 179 186 183 173 82 173 187 192 169 132 167 175 178 173 182 175 185 184 190 190 196 200 201 202 203 194 200 197 145 195 192 204 210 203 133 179 195 194 172 193 121 187 198 198
165 175 101 150 179 171 184 184 192 181 176 172 98 183 161 178 172 165 184 171 182 181 162 167 186 191 192 188 186 192 187 188 193 199 184 134 198 155 141 153 192 199 195 186 148 147 181 173 178
178 178 183 173 174 188 169 179 187 174 168 137 188 185 174 131 172 170 159 185 169 167 170 182 189 189 184 184 183 183 188 187 191 155 183 185 180 192 196 204 197 182 127 174 212 135 113 145 139
176 183 174 182 180 175 179 183 176 172 186 122 144 192 167 164 165 168 164 169 158 165 169 181 187 183 181 181 184 192 183 186 184 172 188 149 190 196 212 209 130 157 137 145 133 131 144 167 190
188 178 181 180 177 181 174 179 181 169 186 176 168 173 194 172 162 191 177 180 160 172 181 162 196 171 161 174 173 174 178 184 177 173 181 182 233 230 114 130 215 134 134 202 151 144 132 141 192
Wind_Speed
37 65 34 23 18 18 39 17 21 11 7 8 9 29 14 6 6 10 9 37 13 37 36 35 35 34 36 35 35 37 37 24 39 43 23 47 23 46 31 53 52 44 44 48 58 61 62 58 60
40 55 35 49 66 23 22 36 16 15 14 11 16 23 8 12 28 40 12 33 37 37 38 41 37 32 34 35 26 35 18 20 23 31 33 49 43 49 44 29 49 52 55 55 53 58 57 57 51
26 38 30 34 32 29 36 40 19 20 18 12 10 6 36 17 18 33 13 16 33 36 40 34 35 32 40 30 36 34 40 39 42 43 48 46 49 44 35 44 45 30 45 47 47 55 48 55 54
25 39 35 32 33 35 65 37 38 17 8 10 43 13 39 22 31 21 32 16 19 39 44 35 45 45 34 31 33 38 42 41 44 47 45 46 37 29 41 41 25 38 37 42 48 40 52 47 51
41 32 40 37 33 31 41 48 37 24 19 16 24 18 17 45 45 41 36 33 20 39 46 41 47 44 38 34 34 39 33 44 46 47 45 44 35 36 38 33 34 34 41 31 36 49 37 40 48
47 32 38 39 37 23 36 67 61 21 20 39 70 17 11 38 44 36 30 46 51 43 41 42 49 40 36 16 39 34 39 44 45 45 48 33 32 35 35 35 37 36 35 35 41 48 40 35 39
32 32 39 40 41 40 57 22 22 35 35 30 53 17 11 58 12 12 58 59 45 52 45 37 44 23 23 32 35 26 24 39 35 46 46 42 30 35 35 35 38 37 37 37 43 42 41 45 44
50 48 38 37 42 70 43 20 24 27 68 15 29 15 13 16 33 17 19 21 44 36 43 30 44 32 23 21 24 39 43 38 44 43 45 28 30 32 37 33 39 40 45 44 41 46 46 43 45
50 53 52 44 43 45 65 51 34 71 31 71 17 14 14 11 15 22 33 29 35 33 54 45 36 23 23 24 44 39 44 41 42 41 46 31 31 32 32 25 40 40 39 42 45 42 46 47 47
84 87 60 45 24 66 55 70 54 28 18 17 16 13 18 19 18 32 44 52 45 48 36 60 54 26 28 45 31 34 38 40 39 39 34 29 30 33 45 36 42 41 42 45 45 46 37 32 41
48 66 57 54 79 59 47 64 65 32 23 19 12 21 19 14 22 54 59 54 44 54 59 34 47 43 34 30 34 40 37 39 39 29 33 30 29 33 32 36 35 36 39 43 34 34 36 42 42
54 51 56 63 77 55 50 66 65 35 34 26 19 23 29 26 23 59 61 54 62 52 44 45 41 37 37 34 33 40 37 37 34 29 30 32 34 34 39 36 43 43 43 35 53 43 43 42 40
56 51 53 54 70 80 27 62 46 43 47 10 23 43 35 21 22 43 50 48 44 44 43 36 34 36 37 36 40 39 36 34 35 34 32 31 36 36 36 38 32 31 34 46 49 46 41 43 42
55 52 66 38 20 55 22 25 40 53 50 43 60 37 37 23 22 31 43 29 32 41 39 37 37 39 36 41 35 36 36 34 36 34 32 32 35 38 44 34 33 42 49 49 46 43 43 49 49
65 63 34 46 31 57 34 40 42 51 55 28 30 27 28 25 27 38 39 36 42 32 34 34 33 32 30 37 38 37 36 34 37 38 33 31 34 39 41 31 34 36 43 41 46 44 44 51 49
62 56 46 53 30 34 41 41 36 38 50 45 33 26 28 30 24 41 39 28 36 34 38 44 28 35 31 43 39 39 36 36 35 34 34 34 35 39 41 35 36 40 39 44 48 52 54 55 55
66 52 48 47 50 32 48 45 32 38 36 42 44 33 44 24 38 33 27 36 37 35 33 30 28 30 35 36 39 40 39 41 39 35 35 37 38 34 35 38 42 44 45 46 50 52 54 54 56
61 53 56 52 50 51 47 37 30 40 39 40 35 43 33 31 30 29 29 36 34 27 31 30 37 37 36 37 42 41 42 39 45 45 47 47 42 36 38 41 42 49 50 50 52 54 56 58 59
64 62 53 54 50 50 49 40 52 43 20 22 51 43 32 32 35 36 42 40 36 34 31 42 39 42 41 39 44 43 43 42 47 46 50 44 39 41 39 43 50 55 54 54 55 57 51 60 62
67 56 57 51 53 54 45 44 49 33 39 36 34 36 32 30 37 32 32 23 28 29 30 37 42 44 40 41 43 42 44 41 43 45 46 40 43 38 49 51 53 55 56 58 58 60 64 56 60
61 53 57 52 54 54 46 42 44 40 38 36 25 28 44 36 34 41 32 22 24 24 39 44 45 45 44 45 46 45 45 41 37 41 55 49 50 51 52 56 56 61 62 62 65 61 57 71 75
66 56 47 46 55 51 44 41 47 46 41 38 34 36 37 35 32 31 24 25 33 30 31 29 43 45 50 50 43 38 41 42 47 56 54 53 55 55 52 61 61 63 64 56 71 71 64 76 79
69 56 49 53 55 51 46 49 48 41 40 39 35 39 32 39 40 39 39 31 25 28 35 38 38 48 52 53 51 52 53 54 54 55 43 59 53 60 62 62 64 65 61 61 64 81 80 83 82
69 47 50 56 36 48 43 42 40 43 43 41 39 39 32 35 36 34 34 36 34 33 36 32 37 43 51 55 54 51 56 58 52 54 61 64 63 66 66 68 60 62 75 78 75 80 87 91 93
65 28 44 52 50 48 44 45 41 46 44 44 43 45 44 23 35 42 37 38 35 34 35 37 39 39 49 55 58 60 61 63 59 61 63 63 66 68 70 71 62 73 81 83 85 86 88 91 99
56 20 53 48 54 48 46 49 42 31 48 45 50 47 32 47 46 42 39 38 41 41 44 42 44 44 45 46 49 51 54 56 62 63 67 66 64 66 69 64 77 79 80 79 85 55 92 97 100
44 48 23 43 53 48 48 51 45 50 49 51 35 48 47 45 46 37 39 41 41 43 45 48 50 48 49 54 58 56 61 64 65 65 64 52 67 62 60 68 77 81 83 82 73 72 95 83 89
51 53 53 47 51 54 44 50 50 53 54 46 44 51 51 43 47 48 41 41 47 48 50 52 51 52 55 57 59 62 64 66 67 57 69 71 70 76 78 82 80 86 62 77 96 69 56 80 76
50 53 48 56 55 52 50 56 54 55 50 39 48 44 55 51 50 52 51 52 46 54 53 54 54 56 58 60 62 62 65 68 70 70 73 59 79 80 85 86 60 81 64 72 68 69 82 91 100
57 51 53 53 51 57 54 53 61 55 52 60 59 49 41 59 53 50 58 56 51 59 58 50 55 58 53 63 67 68 70 72 64 72 78 81 85 88 49 62 90 64 67 96 79 83 74 88 111
Wind_Direction
204 226 232 237 231 227 230 224 228 207 232 243 248 249 271 269 273 301 286 250 280 255 259 261 262 264 268 265 265 270 275 289 277 276 301 274 289 279 278 276 278 277 275 275 272 272 272 273 275
218 226 206 222 238 228 223 236 221 205 219 229 259 243 262 262 255 246 304 253 254 256 259 259 259 261 264 266 278 271 302 302 276 276 281 282 282 280 279 287 271 275 276 274 275 269 271 272 276
223 211 217 212 214 231 238 233 206 206 194 222 240 277 246 281 258 252 295 304 257 260 261 263 265 267 267 269 271 274 277 279 282 281 283 282 284 282 282 264 266 283 266 267 267 269 274 272 272
235 211 218 221 214 225 235 235 247 212 224 216 245 254 245 267 257 263 258 296 301 262 264 264 266 269 267 270 273 276 277 280 282 283 283 285 286 280 264 260 303 263 264 267 268 276 273 276 276
220 230 213 217 214 235 234 242 239 200 214 238 258 265 261 250 251 256 258 263 294 264 264 266 269 270 269 269 271 275 278 279 282 282 283 286 267 254 259 280 284 258 264 289 282 271 283 284 280
232 229 221 216 217 231 235 241 247 205 226 246 253 232 250 256 259 262 262 259 262 262 264 266 269 268 278 286 270 287 275 280 280 282 285 285 264 260 257 258 262 276 281 285 274 272 281 290 283
228 232 222 221 218 228 235 192 209 235 247 236 250 239 247 261 285 285 267 267 261 268 265 269 271 277 282 282 270 289 300 280 285 283 286 290 260 284 253 258 285 274 283 282 271 282 281 276 276
228 223 229 231 226 238 231 215 217 237 246 224 254 237 245 267 258 279 291 282 260 268 271 267 272 274 282 299 302 284 277 277 283 284 290 263 262 257 283 258 277 282 268 271 284 274 274 282 278
227 228 233 232 234 237 240 238 234 242 242 249 236 242 253 264 271 275 265 262 263 273 275 268 273 289 296 299 276 277 276 283 285 286 293 271 259 262 257 282 272 282 281 278 282 274 275 276 279
229 231 226 229 237 236 237 241 239 227 227 238 231 244 258 265 273 272 272 269 269 272 269 283 278 283 290 280 286 277 280 284 287 285 291 268 263 256 279 266 275 276 274 267 270 284 288 295 273
228 230 227 224 238 231 234 240 244 230 239 239 243 248 258 253 274 265 270 269 267 277 283 267 277 275 273 287 286 275 282 284 288 285 288 273 273 264 265 251 269 274 275 275 283 286 289 277 278
226 225 225 227 233 233 230 239 244 228 237 243 241 252 254 260 270 274 276 274 282 282 281 279 275 270 271 275 273 277 280 285 283 282 287 284 253 263 254 273 259 262 272 288 269 278 276 277 274
225 224 226 227 235 238 242 238 231 235 238 249 249 253 251 259 280 269 273 269 277 275 274 269 274 270 275 272 277 273 281 282 285 285 281 274 254 275 267 262 278 288 282 275 271 275 275 283 274
235 224 230 236 241 231 250 257 230 244 249 247 253 251 258 260 266 281 273 283 286 270 275 270 272 272 270 274 274 278 282 284 276 281 281 276 255 255 252 265 278 274 266 268 282 279 279 285 285
232 229 240 233 241 233 244 232 237 243 245 250 262 257 261 263 272 269 272 265 274 283 270 265 264 263 262 266 276 276 281 277 274 276 277 277 277 281 257 287 290 291 272 277 281 294 299 286 281
228 229 224 224 232 244 237 245 243 247 244 247 258 248 261 266 264 266 274 279 275 279 266 269 274 263 256 274 272 274 281 275 277 278 276 276 277 281 281 289 294 285 279 292 293 290 289 288 286
228 229 230 220 222 229 234 247 242 247 248 248 259 255 263 259 273 269 273 275 269 280 281 291 300 276 261 260 269 273 275 276 276 280 278 279 281 285 288 294 297 292 287 284 286 285 285 283 282
227 228 224 220 217 220 225 221 244 253 253 246 261 254 259 265 266 268 274 271 273 261 264 297 292 296 259 261 272 273 273 279 281 279 290 293 289 288 291 289 289 288 290 287 285 283 283 284 286
223 223 216 212 209 215 219 210 234 231 235 244 255 260 260 263 270 270 259 264 277 274 255 279 263 261 263 260 270 269 272 275 280 280 284 281 285 291 288 285 286 289 289 288 287 289 295 285 287
220 218 221 219 221 218 213 208 227 238 237 241 247 254 261 261 273 274 277 258 262 256 255 251 263 262 257 256 264 267 269 286 281 279 294 288 288 294 287 290 290 290 290 289 288 287 287 293 292
218 216 214 212 207 216 212 206 226 232 237 240 248 259 261 265 265 272 276 276 256 259 263 263 260 265 265 259 267 265 266 280 290 297 291 282 284 284 286 292 289 288 289 286 289 289 293 289 290
216 220 224 234 213 224 214 209 235 241 241 244 246 250 259 258 266 272 273 273 281 263 256 261 256 266 263 274 279 282 282 282 285 279 281 282 283 285 300 291 288 288 287 299 287 285 297 291 290
215 214 213 213 222 218 240 245 245 232 238 242 235 254 247 263 269 273 275 273 275 272 267 263 277 259 264 264 276 276 278 272 284 278 295 285 296 283 284 287 289 288 299 296 296 292 291 291 282
214 205 212 208 235 220 219 218 230 235 240 246 245 253 257 254 260 266 273 277 277 272 278 275 270 265 262 267 270 281 281 278 285 287 281 283 292 286 288 286 292 298 290 289 292 290 294 294 295
213 210 218 215 221 227 212 221 231 235 244 247 248 249 261 264 269 270 271 278 283 280 276 277 274 276 271 271 271 273 277 276 286 288 286 289 290 287 289 284 295 290 293 295 296 296 296 292 296
207 233 205 226 219 229 217 225 230 250 244 235 236 256 252 265 265 268 274 273 278 279 278 275 274 273 277 280 281 282 283 283 281 288 284 289 293 296 295 294 290 293 292 292 296 294 292 297 297
215 216 224 221 225 226 220 225 217 227 241 248 264 244 263 255 269 278 272 275 275 276 279 279 278 277 278 278 279 280 280 282 285 289 288 292 294 293 297 299 291 295 294 296 297 298 295 299 298
213 214 214 224 233 223 240 235 222 230 248 253 243 245 252 271 267 272 275 264 276 279 284 280 277 279 279 278 280 282 284 286 288 290 288 290 291 290 292 296 293 299 303 298 296 303 301 301 305
216 214 221 218 227 235 230 227 233 238 227 254 262 245 262 270 271 272 276 274 274 282 288 282 278 280 282 285 286 286 287 286 286 288 289 298 289 292 296 297 304 296 300 297 305 306 300 301 297
213 219 220 223 233 231 238 233 231 242 234 239 252 254 252 258 274 260 264 265 280 278 273 289 278 289 284 290 287 286 286 287 292 290 288 289 295 296 305 302 299 302 304 299 300 299 305 304 297